ITY1742 EGPH-EHAM

Flight info

Callsign ITY1742
Flight time 1h 10m
Altitude 39000
Route TLA Y96 OTBUN DCT ERKIT N110 DOLAS L603 LAMSO
Aircraft A320/M-SDE3FGHIRWY/LB1

Departure

Time 2026-05-07 10:42
Airport Edinburgh Airport (EGPH)

Arrival

Time 2026-05-07 11:53
Airport Amsterdam Airport Schiphol (EHAM)
Time Latitude Longitude Altitude Speed Heading
2026-05-07 10:14 55.94757 -3.36622 105 ft 0 kts 101°
2026-05-07 10:18 55.94757 -3.36623 117 ft 0 kts 101°
2026-05-07 10:26 55.94757 -3.36624 116 ft 0 kts 101°
2026-05-07 10:32 55.94761 -3.36667 116 ft 4 kts 101°
2026-05-07 10:32 55.94766 -3.36706 114 ft 2 kts 83°
2026-05-07 10:32 55.94763 -3.36726 114 ft 2 kts 29°
2026-05-07 10:33 55.94746 -3.36736 112 ft 3 kts
2026-05-07 10:33 55.94733 -3.36737 116 ft 2 kts
2026-05-07 10:33 55.94723 -3.36738 114 ft 2 kts
2026-05-07 10:33 55.94719 -3.36738 114 ft 0 kts
2026-05-07 10:36 55.94727 -3.36738 115 ft 4 kts
2026-05-07 10:36 55.94757 -3.36749 115 ft 4 kts 338°
2026-05-07 10:37 55.94780 -3.36768 114 ft 4 kts 338°
2026-05-07 10:37 55.94804 -3.36777 115 ft 4 kts 353°
2026-05-07 10:37 55.94839 -3.36777 116 ft 7 kts
2026-05-07 10:37 55.94888 -3.36795 112 ft 7 kts 332°
2026-05-07 10:38 55.94936 -3.36831 114 ft 10 kts
2026-05-07 10:38 55.94981 -3.36733 114 ft 10 kts 61°
2026-05-07 10:38 55.95016 -3.36630 113 ft 9 kts 59°
2026-05-07 10:38 55.95048 -3.36535 114 ft 8 kts 59°
2026-05-07 10:39 55.95076 -3.36451 113 ft 8 kts 59°
2026-05-07 10:39 55.95112 -3.36347 114 ft 14 kts 59°
2026-05-07 10:39 55.95178 -3.36148 112 ft 19 kts 59°
2026-05-07 10:39 55.95245 -3.35950 115 ft 18 kts 59°
2026-05-07 10:40 55.95296 -3.35801 115 ft 14 kts 58°
2026-05-07 10:40 55.95340 -3.35673 113 ft 10 kts 58°
2026-05-07 10:40 55.95359 -3.35618 114 ft 5 kts 58°
2026-05-07 10:40 55.95385 -3.35542 115 ft 9 kts 59°
2026-05-07 10:41 55.95416 -3.35448 114 ft 8 kts 58°
2026-05-07 10:41 55.95471 -3.35413 116 ft 9 kts 345°
2026-05-07 10:41 55.95533 -3.35477 112 ft 12 kts 327°
2026-05-07 10:41 55.95566 -3.35586 113 ft 10 kts 240°
2026-05-07 10:42 55.95458 -3.35901 112 ft 64 kts 239°
2026-05-07 10:42 55.95104 -3.36944 113 ft 128 kts 238°
2026-05-07 10:42 55.94551 -3.38517 357 ft 160 kts 236°
2026-05-07 10:42 55.93973 -3.40204 1152 ft 159 kts 236°
2026-05-07 10:43 55.93379 -3.41952 1761 ft 175 kts 236°
2026-05-07 10:43 55.92705 -3.43897 2255 ft 195 kts 236°
2026-05-07 10:43 55.91954 -3.46078 2801 ft 217 kts 236°
2026-05-07 10:43 55.91127 -3.48496 3388 ft 240 kts 237°
2026-05-07 10:44 55.90224 -3.51118 4221 ft 252 kts 238°
2026-05-07 10:44 55.89322 -3.53826 5268 ft 257 kts 239°
2026-05-07 10:44 55.88389 -3.56576 5785 ft 261 kts 233°
2026-05-07 10:44 55.86958 -3.58498 5963 ft 262 kts 199°
2026-05-07 10:45 55.85145 -3.58612 5993 ft 266 kts 166°
2026-05-07 10:45 55.83485 -3.57121 6192 ft 273 kts 146°
2026-05-07 10:45 55.81941 -3.55132 7188 ft 276 kts 144°
2026-05-07 10:45 55.80397 -3.53090 7744 ft 281 kts 144°
2026-05-07 10:46 55.78818 -3.50998 8578 ft 284 kts 144°
2026-05-07 10:46 55.77229 -3.48890 9579 ft 287 kts 145°
2026-05-07 10:46 55.75603 -3.46728 10305 ft 300 kts 144°
2026-05-07 10:46 55.73863 -3.44410 10647 ft 324 kts 144°
2026-05-07 10:47 55.72009 -3.41949 11215 ft 338 kts 144°
2026-05-07 10:47 55.70103 -3.39424 11991 ft 345 kts 144°
2026-05-07 10:47 55.68170 -3.36856 12810 ft 349 kts 144°
2026-05-07 10:47 55.66217 -3.34253 13616 ft 354 kts 144°
2026-05-07 10:48 55.64236 -3.31604 14331 ft 359 kts 144°
2026-05-07 10:48 55.62233 -3.28917 15028 ft 364 kts 144°
2026-05-07 10:48 55.60206 -3.26187 15741 ft 368 kts 144°
2026-05-07 10:48 55.58157 -3.23419 16462 ft 372 kts 144°
2026-05-07 10:49 55.56087 -3.20622 16873 ft 376 kts 144°
2026-05-07 10:49 55.54005 -3.17811 16970 ft 376 kts 144°
2026-05-07 10:49 55.51921 -3.15002 16981 ft 376 kts 144°
2026-05-07 10:49 55.49839 -3.12201 16984 ft 376 kts 144°
2026-05-07 10:50 55.47761 -3.09407 16989 ft 376 kts 144°
2026-05-07 10:50 55.45682 -3.06614 16989 ft 376 kts 144°
2026-05-07 10:50 55.43601 -3.03825 16993 ft 376 kts 144°
2026-05-07 10:50 55.41534 -3.01062 17321 ft 380 kts 145°
2026-05-07 10:51 55.39424 -2.98243 18086 ft 382 kts 145°
2026-05-07 10:51 55.37295 -2.95390 18702 ft 386 kts 144°
2026-05-07 10:51 55.35155 -2.92523 18932 ft 388 kts 145°
2026-05-07 10:51 55.33006 -2.89644 18995 ft 388 kts 145°
2026-05-07 10:52 55.30862 -2.86774 18998 ft 388 kts 145°
2026-05-07 10:52 55.28714 -2.83905 19033 ft 389 kts 145°
2026-05-07 10:52 55.26544 -2.81009 19631 ft 392 kts 145°
2026-05-07 10:52 55.24366 -2.78100 20260 ft 395 kts 145°
2026-05-07 10:53 55.22172 -2.75166 20854 ft 399 kts 145°
2026-05-07 10:53 55.19958 -2.72204 21437 ft 402 kts 145°
2026-05-07 10:53 55.17728 -2.69219 22013 ft 406 kts 145°
2026-05-07 10:53 55.15478 -2.66208 22587 ft 409 kts 145°
2026-05-07 10:54 55.13209 -2.63173 23141 ft 412 kts 145°
2026-05-07 10:54 55.10925 -2.60117 23659 ft 416 kts 145°
2026-05-07 10:54 55.08620 -2.57036 24112 ft 419 kts 145°
2026-05-07 10:54 55.06297 -2.53938 24567 ft 421 kts 145°
2026-05-07 10:55 55.03962 -2.50828 25018 ft 424 kts 145°
2026-05-07 10:55 55.01606 -2.47694 25454 ft 427 kts 145°
2026-05-07 10:55 54.99267 -2.44585 25886 ft 429 kts 145°
2026-05-07 10:55 54.98323 -2.43329 26069 ft 430 kts 145°
2026-05-07 10:56 54.96349 -2.40702 26418 ft 432 kts 145°
2026-05-07 10:56 54.93947 -2.37527 26863 ft 435 kts 146°
2026-05-07 10:57 54.91528 -2.34344 27252 ft 438 kts 144°
2026-05-07 10:57 54.89298 -2.30684 27663 ft 443 kts 135°
2026-05-07 10:57 54.87182 -2.26768 28090 ft 446 kts 135°
2026-05-07 10:57 54.85054 -2.22828 28501 ft 449 kts 135°
2026-05-07 10:58 54.82910 -2.18861 28914 ft 451 kts 135°
2026-05-07 10:58 54.80754 -2.14878 29294 ft 454 kts 135°
2026-05-07 10:58 54.78586 -2.10878 29676 ft 456 kts 136°
2026-05-07 10:58 54.76400 -2.06858 30045 ft 459 kts 136°
2026-05-07 10:59 54.74209 -2.02837 30360 ft 461 kts 136°
2026-05-07 10:59 54.71995 -1.98783 30673 ft 463 kts 136°
2026-05-07 10:59 54.69778 -1.94737 30974 ft 465 kts 136°
2026-05-07 10:59 54.67541 -1.90668 31294 ft 467 kts 136°
2026-05-07 11:00 54.65308 -1.86608 31665 ft 467 kts 136°
2026-05-07 11:00 54.63070 -1.82540 32088 ft 466 kts 136°
2026-05-07 11:00 54.60841 -1.78491 32516 ft 465 kts 136°
2026-05-07 11:00 54.58618 -1.74458 32909 ft 464 kts 136°
2026-05-07 11:01 54.56396 -1.70436 33345 ft 463 kts 136°
2026-05-07 11:01 54.54173 -1.66423 33759 ft 462 kts 136°
2026-05-07 11:01 54.51955 -1.62425 34154 ft 461 kts 136°
2026-05-07 11:01 54.49738 -1.58434 34487 ft 461 kts 137°
2026-05-07 11:02 54.47521 -1.54449 34816 ft 461 kts 136°
2026-05-07 11:02 54.45302 -1.50469 35133 ft 461 kts 137°
2026-05-07 11:02 54.43085 -1.46505 35440 ft 461 kts 137°
2026-05-07 11:02 54.40856 -1.42535 35731 ft 461 kts 137°
2026-05-07 11:03 54.38660 -1.38623 36023 ft 461 kts 136°
2026-05-07 11:03 54.36407 -1.34608 36336 ft 461 kts 137°
2026-05-07 11:03 54.34185 -1.30652 36613 ft 461 kts 137°
2026-05-07 11:03 54.31964 -1.26701 36891 ft 461 kts 136°
2026-05-07 11:04 54.29767 -1.22797 37160 ft 461 kts 136°
2026-05-07 11:04 54.27540 -1.18848 37430 ft 461 kts 136°
2026-05-07 11:04 54.25308 -1.14900 37699 ft 460 kts 136°
2026-05-07 11:04 54.23083 -1.10972 37948 ft 460 kts 136°
2026-05-07 11:05 54.20850 -1.07043 38216 ft 460 kts 136°
2026-05-07 11:05 54.18618 -1.03122 38477 ft 460 kts 136°
2026-05-07 11:05 54.16386 -0.99209 38724 ft 460 kts 136°
2026-05-07 11:05 54.14157 -0.95304 38919 ft 460 kts 136°
2026-05-07 11:06 54.11923 -0.91392 39045 ft 461 kts 136°
2026-05-07 11:06 54.09677 -0.87470 39084 ft 465 kts 136°
2026-05-07 11:06 54.05903 -0.80889 39086 ft 468 kts 136°
2026-05-07 11:07 54.00602 -0.71665 39090 ft 468 kts 137°
2026-05-07 11:07 53.96035 -0.63766 39092 ft 468 kts 136°
2026-05-07 11:08 53.92207 -0.57162 39093 ft 468 kts 137°
2026-05-07 11:08 53.87635 -0.49306 39099 ft 468 kts 137°
2026-05-07 11:09 53.83087 -0.41508 39109 ft 468 kts 137°
2026-05-07 11:09 53.78509 -0.33673 39114 ft 468 kts 137°
2026-05-07 11:10 53.73913 -0.25840 39120 ft 469 kts 137°
2026-05-07 11:10 53.69317 -0.18043 39133 ft 469 kts 137°
2026-05-07 11:11 53.64714 -0.10249 39125 ft 468 kts 137°
2026-05-07 11:11 53.60111 -0.02489 39116 ft 468 kts 137°
2026-05-07 11:12 53.55509 0.05246 39111 ft 467 kts 137°
2026-05-07 11:12 53.50905 0.12966 39104 ft 468 kts 137°
2026-05-07 11:13 53.46326 0.20621 39093 ft 467 kts 137°
2026-05-07 11:13 53.41708 0.28304 39099 ft 467 kts 137°
2026-05-07 11:14 53.37089 0.35963 39102 ft 467 kts 137°
2026-05-07 11:14 53.32469 0.43604 39108 ft 467 kts 137°
2026-05-07 11:15 53.27850 0.51224 39111 ft 466 kts 137°
2026-05-07 11:15 53.23227 0.58838 39116 ft 466 kts 137°
2026-05-07 11:16 53.18598 0.66416 39120 ft 466 kts 137°
2026-05-07 11:16 53.13963 0.73973 39121 ft 466 kts 137°
2026-05-07 11:17 53.09337 0.81519 39122 ft 466 kts 137°
2026-05-07 11:17 53.04730 0.89010 39126 ft 465 kts 137°
2026-05-07 11:18 53.00236 0.96745 39124 ft 467 kts 128°
2026-05-07 11:18 52.97262 1.06311 39126 ft 471 kts 108°
2026-05-07 11:19 52.95930 1.16960 39122 ft 472 kts 102°
2026-05-07 11:19 52.94698 1.27662 39123 ft 473 kts 102°
2026-05-07 11:20 52.93434 1.38356 39125 ft 473 kts 102°
2026-05-07 11:20 52.92163 1.49035 39123 ft 472 kts 102°
2026-05-07 11:21 52.90888 1.59729 38659 ft 473 kts 102°
2026-05-07 11:21 52.90253 1.65059 37982 ft 470 kts 102°
2026-05-07 11:21 52.89618 1.70358 37303 ft 468 kts 102°
2026-05-07 11:22 52.88990 1.75567 36860 ft 465 kts 102°
2026-05-07 11:22 52.88350 1.80822 36597 ft 465 kts 102°
2026-05-07 11:22 52.87711 1.86060 36334 ft 465 kts 102°
2026-05-07 11:22 52.87067 1.91332 35538 ft 469 kts 102°
2026-05-07 11:23 52.86420 1.96612 34942 ft 465 kts 102°
2026-05-07 11:23 52.85778 2.01823 34372 ft 460 kts 102°
2026-05-07 11:23 52.85141 2.06996 33670 ft 457 kts 102°
2026-05-07 11:23 52.84503 2.12153 32792 ft 457 kts 102°
2026-05-07 11:24 52.84256 2.14145 32430 ft 458 kts 103°
2026-05-07 11:29 52.83897 2.17286 32049 ft 450 kts 103°
2026-05-07 11:30 52.83286 2.22322 30646 ft 447 kts 104°
2026-05-07 11:30 52.82641 2.27303 29753 ft 435 kts 104°
2026-05-07 11:30 52.82019 2.32047 29394 ft 411 kts 103°
2026-05-07 11:30 52.81428 2.36593 28811 ft 399 kts 103°
2026-05-07 11:31 52.80859 2.41004 28249 ft 396 kts 103°
2026-05-07 11:31 52.80289 2.45444 27688 ft 393 kts 103°
2026-05-07 11:31 52.79729 2.49847 27146 ft 390 kts 103°
2026-05-07 11:31 52.79176 2.54216 26561 ft 388 kts 103°
2026-05-07 11:32 52.78063 2.62961 24503 ft 388 kts 103°
2026-05-07 11:32 52.77504 2.67304 23499 ft 386 kts 103°
2026-05-07 11:32 52.76944 2.71625 22373 ft 384 kts 103°
2026-05-07 11:33 52.76384 2.75936 21289 ft 383 kts 103°
2026-05-07 11:33 52.75825 2.80222 20248 ft 381 kts 103°
2026-05-07 11:33 52.75266 2.84486 19251 ft 379 kts 103°
2026-05-07 11:33 52.74708 2.88719 18263 ft 377 kts 103°
2026-05-07 11:34 52.74150 2.92926 17190 ft 374 kts 103°
2026-05-07 11:34 52.73582 2.97106 16160 ft 371 kts 105°
2026-05-07 11:34 52.72689 3.01019 15554 ft 357 kts 117°
2026-05-07 11:34 52.71496 3.04512 15069 ft 341 kts 121°
2026-05-07 11:35 52.70331 3.07836 14596 ft 329 kts 120°
2026-05-07 11:35 52.69188 3.11111 14134 ft 330 kts 120°
2026-05-07 11:35 52.68053 3.14359 13645 ft 332 kts 120°
2026-05-07 11:35 52.66905 3.17649 13146 ft 331 kts 120°
2026-05-07 11:36 52.65754 3.20934 12660 ft 331 kts 120°
2026-05-07 11:36 52.64600 3.24214 12166 ft 330 kts 120°
2026-05-07 11:36 52.63447 3.27485 11672 ft 330 kts 120°
2026-05-07 11:36 52.62294 3.30742 11172 ft 329 kts 120°
2026-05-07 11:37 52.61139 3.33993 10666 ft 329 kts 120°
2026-05-07 11:37 52.59995 3.37210 10403 ft 320 kts 120°
2026-05-07 11:37 52.58937 3.40345 10276 ft 308 kts 114°
2026-05-07 11:37 52.58285 3.43624 10137 ft 297 kts 101°
2026-05-07 11:38 52.57937 3.46935 9905 ft 290 kts 99°
2026-05-07 11:38 52.57596 3.50194 9733 ft 289 kts 99°
2026-05-07 11:38 52.57246 3.53437 9462 ft 287 kts 102°
2026-05-07 11:38 52.56459 3.56405 9191 ft 284 kts 128°
2026-05-07 11:39 52.55051 3.58672 8930 ft 284 kts 138°
2026-05-07 11:39 52.53596 3.60853 8673 ft 283 kts 137°
2026-05-07 11:39 52.52168 3.63009 8406 ft 281 kts 137°
2026-05-07 11:39 52.50730 3.65179 8146 ft 280 kts 137°
2026-05-07 11:40 52.49280 3.67360 7890 ft 279 kts 137°
2026-05-07 11:40 52.47851 3.69506 7629 ft 277 kts 137°
2026-05-07 11:40 52.46450 3.71611 7382 ft 276 kts 137°
2026-05-07 11:40 52.45034 3.73733 7167 ft 275 kts 137°
2026-05-07 11:41 52.43623 3.75844 7096 ft 274 kts 137°
2026-05-07 11:41 52.42214 3.77950 7105 ft 275 kts 137°
2026-05-07 11:41 52.40798 3.80064 7106 ft 275 kts 137°
2026-05-07 11:41 52.39384 3.82172 7106 ft 275 kts 137°
2026-05-07 11:42 52.37968 3.84280 7106 ft 275 kts 137°
2026-05-07 11:42 52.36555 3.86383 7102 ft 275 kts 137°
2026-05-07 11:42 52.35138 3.88489 7102 ft 275 kts 137°
2026-05-07 11:42 52.33723 3.90590 7103 ft 275 kts 137°
2026-05-07 11:43 52.32307 3.92691 7106 ft 275 kts 137°
2026-05-07 11:43 52.30892 3.94793 7107 ft 275 kts 137°
2026-05-07 11:43 52.29482 3.96898 7106 ft 274 kts 135°
2026-05-07 11:43 52.28222 3.99258 6987 ft 275 kts 128°
2026-05-07 11:44 52.27042 4.01715 6810 ft 273 kts 128°
2026-05-07 11:44 52.25893 4.04128 6637 ft 272 kts 127°
2026-05-07 11:44 52.24730 4.06568 6460 ft 272 kts 128°
2026-05-07 11:44 52.23571 4.08997 6195 ft 271 kts 127°
2026-05-07 11:45 52.22413 4.11410 5925 ft 270 kts 127°
2026-05-07 11:45 52.21255 4.13811 5644 ft 269 kts 127°
2026-05-07 11:45 52.20097 4.16193 5409 ft 268 kts 127°
2026-05-07 11:45 52.18939 4.18561 5164 ft 266 kts 128°
2026-05-07 11:46 52.17787 4.20925 4990 ft 267 kts 125°
2026-05-07 11:46 52.16810 4.23482 4726 ft 265 kts 118°
2026-05-07 11:46 52.15911 4.26095 4466 ft 264 kts 117°
2026-05-07 11:46 52.15146 4.28641 4214 ft 262 kts 109°
2026-05-07 11:47 52.14543 4.31425 4057 ft 260 kts 103°
2026-05-07 11:47 52.14378 4.34328 3926 ft 257 kts 83°
2026-05-07 11:47 52.14803 4.37125 3796 ft 254 kts 65°
2026-05-07 11:47 52.15685 4.39595 3661 ft 253 kts 57°
2026-05-07 11:48 52.16633 4.42016 3527 ft 253 kts 57°
2026-05-07 11:48 52.17576 4.44432 3393 ft 252 kts 57°
2026-05-07 11:48 52.18502 4.46814 3264 ft 251 kts 57°
2026-05-07 11:48 52.19436 4.49217 3140 ft 249 kts 57°
2026-05-07 11:49 52.20317 4.51488 3019 ft 225 kts 57°
2026-05-07 11:49 52.21115 4.53547 2904 ft 209 kts 57°
2026-05-07 11:49 52.21887 4.55537 2667 ft 205 kts 57°
2026-05-07 11:49 52.22635 4.57465 2420 ft 199 kts 57°
2026-05-07 11:50 52.23368 4.59360 2141 ft 195 kts 57°
2026-05-07 11:50 52.24072 4.61181 1886 ft 185 kts 56°
2026-05-07 11:50 52.24741 4.62912 1618 ft 175 kts 56°
2026-05-07 11:50 52.25378 4.64561 1373 ft 166 kts 56°
2026-05-07 11:51 52.25970 4.66095 1152 ft 154 kts 55°
2026-05-07 11:51 52.26513 4.67505 941 ft 139 kts 55°
2026-05-07 11:51 52.27008 4.68788 758 ft 129 kts 55°
2026-05-07 11:51 52.27481 4.70032 562 ft 127 kts 57°
2026-05-07 11:52 52.27951 4.71238 398 ft 127 kts 56°
2026-05-07 11:52 52.28422 4.72452 225 ft 125 kts 57°
2026-05-07 11:52 52.28885 4.73656 38 ft 125 kts 57°
2026-05-07 11:52 52.29302 4.74739 0 ft 93 kts 58°
2026-05-07 11:53 52.29569 4.75437 -2 ft 58 kts 58°
2026-05-07 11:53 52.29764 4.75942 -3 ft 48 kts 58°
2026-05-07 11:53 52.29920 4.76347 -4 ft 29 kts 57°
2026-05-07 11:53 52.30028 4.76538 -2 ft 20 kts 30°
2026-05-07 11:54 52.30119 4.76618 -1 ft 14 kts 28°
2026-05-07 11:54 52.30193 4.76682 -1 ft 0 kts 28°
2026-05-07 11:56 52.30212 4.76698 -1 ft 6 kts 28°
2026-05-07 11:56 52.30254 4.76732 -1 ft 8 kts 23°
2026-05-07 11:57 52.30305 4.76800 -1 ft 11 kts 58°
2026-05-07 11:57 52.30352 4.76924 -1 ft 14 kts 58°
2026-05-07 11:57 52.30400 4.77029 -1 ft 12 kts 32°
2026-05-07 11:57 52.30484 4.76993 -1 ft 14 kts 327°
2026-05-07 11:58 52.30557 4.76918 -1 ft 10 kts 329°
2026-05-07 11:58 52.30601 4.76876 -1 ft 0 kts 332°
2026-05-07 11:58 52.30605 4.76873 -1 ft 3 kts 335°
2026-05-07 11:58 52.30631 4.76865 -1 ft 5 kts 359°
2026-05-07 11:59 52.30684 4.76846 -1 ft 9 kts 329°
2026-05-07 11:59 52.30728 4.76863 -1 ft 8 kts 49°
2026-05-07 11:59 52.30744 4.76895 -1 ft 3 kts 50°
2026-05-07 11:59 52.30745 4.76897 -1 ft 0 kts 50°